Race Results for
Cross Out Cancer
Shawnee, KS
(Event Information)
View By:
Cyclo-cross on 10/10/2010

Note: Ranking points are NOT upgrade points. An explanation of ranking points can be found here.


Men - Cat3/4

 Place Points NameCity, StateTime USAC #BibTeam
1373.38Kent Woermann   Lees Summit, MO00:00.0 278173  338 Bicycle Shack Racing
2378.86Tyler Whetstone   Kansas City, MO00:00.0 232024  317 Unattached
3384.34Cameron Rex   Shawnee, KS00:00.0 243878  308 
4389.82Michael Miles   Omaha, NE00:00.0 151897  300 The Bike Way
5395.30Tyler Carmichael   Roca, NE00:00.0 176740  324 Re-Cycled
6400.78Kory Dillman   Lees Summit, MO00:00.0 220294  331 Bicycle Shack
7406.26Michael Ellis   Overlandpark, KS00:00.0 298654  337 Team Colavita/ Parisi Coffee
8411.74Jeremy Cook   Omaha, NE00:00.0 245814  301 MWCC
9417.22Tony Stanislav   Kansas City, MO00:00.0 33814  303 360 Racing
10422.70jesse ens   Lecompton, KS00:00.0 308053  311 
11428.18RIchard Pearson   Fremont, NE00:00.0 221142  304 Team Kaos/Alegent Health
12433.66Jeffrey Lively   Overland Park, KS00:00.0 220698  327 LIVESTRONG Army KC / Midwest C
13439.14Robert Brigman   Lawrence, KS00:00.0 268813  335 GP Velotek
14Andrew LYLES   00:00.0  326 Colavita
15Matt GILHOUSEN   00:00.0  333 unattached
16455.58Tyler Schumacher   Overland Park, KS00:00.0 199298  309 KCOI/Boulevard
17Richard BARRETT   00:00.0  325 Unattached
18466.54Mark Schoonbeck   Kansas City, MO00:00.0 150949  332 KCOI Boulevard
19472.02Jeremy Smith   Bonner Springs, KS00:00.0 275157  305 In A Tub Racing
20477.50Chris Hudson   Kansas City, MO00:00.0 264887  307 In-A-Tub Cycling P/B Cycle Cit
21482.98Dylan Broll   Kansas City, MO00:00.0 287191  322 Localcycling.com
22488.46Jake Schell   Kansas City, MO00:00.0 307270  310 Team Colavita Parisi Kansas Ci
23Paul BASEL   00:00.0  321 Unattached
24499.42Jordan Haffener   Jenks, OK00:00.0 282679  319 Kinetic Cycling
25504.90Adam Keck   Leawood, KS00:00.0 291843  329 Team Colavita/ Parisi Coffee
26510.38Cliff Straub (1 - Cat4)   Overlandpark, KS00:00.0 301896  328 KCOI Boulevard
27515.86Andrew Schoen   Platte City, MO00:00.0 181559  336 Epic Cycling Team
28Rico VAN BUSKIRK   00:00.0  323 Unattached
29526.82Sean Jackson   Overland Park, KS00:00.0 158601  314 LIVESTRONG Army KC / Midwest C
30Jon HOSLER   00:00.0  330 unattached
31537.78Jonathan Peck   Merriam, KS00:00.0 306890  315 Team Colavita/ Parisi Coffee
DNSBrett Coppage   Kansas City, MO00:00.0 226805  312 skc
DNSBrent Hankins   Kansas City, MO00:00.0 222778  313 LIVESTRONG Army KC / Midwest C
DNSgrant harrison   La Crosse, WI00:00.0 309144  318 GP Velotek
DNFWilliam Prann   Lenexa, KS00:00.0 243848  302 Midwest Cycling Community
DNFChris Locke   Kansas City, MO00:00.0 21421  306 Cow Town Cycling Team
DNFRodney LANDIS   00:00.0  316 Unattached
DNFJon Riekenberg   Lenexa, KS00:00.0 295802  320 Localcycling.com

Men - Cat2/3

 Place Points NameCity, StateTime USAC #BibTeam
1299.65Jeff Yielding   Hermann, MO00:00.0 204197  104 Revolution Cycles
2308.82Josh Taylor   Olathe, KS00:00.0 201307  113 Slimenundgrossen
3317.99Matthew Baugher   St. Joseph, MO00:00.0 226843  112 Epic Cycling Team
4327.16Jason Knight   Lawrence, KS00:00.0 174449  116 Epic Cycling Team
5336.33Andy Wiens   Marina Del Rey, CA00:00.0 301974  118 Team Colavita/ Parisi Coffee
6345.50Kelly Ricke   Olathe, KS00:00.0 247142  100 SKC Racing
7354.67Michael Gaherty   Lees Summit, MO00:00.0 138401  109 My Wife Inc
8363.84Bobby Summers   Overland Park, KS00:00.0 209075  122 unattached
9373.01Tyler Henson   Leawood, KS00:00.0 178082  119 Slimenundgrossen
10382.18Chris Hershey   Kansas City, MO00:00.0 246148  107 In-A-Tub
11391.35Robert Schultz   Overland Park, KS00:00.0 100294  121 LIVESTRONG Army KC / Midwest C
12400.52Joel Terry   Prairie Village, KS00:00.0 266270  110 SKC Racing
13409.69John Jones   Bolivar, MO00:00.0 142781  101 My Wife Inc.
14418.86Tom Bondurant   Fort Collins, CO00:00.0 229831  117 SKC Racing
DNPJustin Griest   Shawnee, KS00:00.0 287837  102 
DNPDaniel Everhart   Kansas City, KS00:00.0 248231  103 
DNPBenjamin Perkins   La Vista, NE00:00.0 270785  105 Midwest Cycling Community KC
DNPTony Stanislav   Kansas City, MO00:00.0 33814  106 360 Racing
DNPMatthew Baugher   St. Joseph, MO00:00.0 226843  108 Epic Cycling Team
DNPTravis Donn   Kansas City, MO00:00.0 299757  111 Ethos Racing
DNPKent Woermann   Lees Summit, MO00:00.0 278173  114 Bicycle Shack Racing
DNPAustin Vinton   Springfield, MO00:00.0 311693  115 Unattached
DNPKen MORAN   00:00.0  120 Unattached

Men - Cat1/2/3/4 - Single Speed

 Place Points NameCity, StateTime USAC #BibTeam
1Jason Fife   New Prague, MN00:00.0 198104  334 KCOI Boulevard
2David Hejduk   Overland Park, KS00:00.0 68732  245 360 Racing
3Joel Hammontree   Shawnee Mission, KS00:00.0 198150  172 360 Racing
4Benjamin Perkins   La Vista, NE00:00.0 270785  168 Midwest Cycling Community KC
5Mark Horn   Mission, KS00:00.0 301646  167 Kansas City Bicycle Club
6Clint ROBINSON   00:00.0  178 Unattached
7Jeff KOEHLER   00:00.0  171 Unattached
8Randy Martin   Wichita, KS00:00.0 211562  165 Big D Cycling
9David Romisch   Overland Park, KS00:00.0 254416  170 GP Velotek
10Harold Parker   Lenexa, KS00:00.0 27258  169 360 Racing
11Tracey Cheuvront   Kansas City, KS00:00.0 252458  175 Unattached
12Brian Prosser   Shawnee, KS00:00.0 281893  177 LIVESTRONG Army KC / Midwest C
13John MORAN   00:00.0  244 unattached
14Joshua KEITHLY   00:00.0  173 Unattached
15Derrick Boos   Saint Joseph, MO00:00.0 286474  166 
DNFZeke SHEPHERD   00:00.0  174 Unattached
DNFMarcus BOWMAN   00:00.0  176 Unattached

Men - Cat1/2/3

 Place Points NameCity, StateTime USAC #BibTeam
1241.40Joseph Schmalz   Lawrence, KS00:00.0 197714  13 Mercy Cycling Team
2256.03Shadd Smith   Overland Park, KS00:00.0 138402  10 Mercy Cycling Team
3270.66Joshua Johnson   Columbia, MO00:00.0 75343  Michelob Ultra - Big Shark Rac
4285.29Thomas Price   Overland Park, KS00:00.0 28705  Mercy Elite Cycling
5299.92Daniel Miller   Columbia, MO00:00.0 285982  Columbia Bike Club Race Team
6314.55Adam Mills   Lewisville, TX00:00.0 102467  Mercy Cycling Team
7329.18Andrew Coe   Mission, KS00:00.0 244716  14 SKC Racing
8343.81Bradley Sullivan   Shawnee, KS00:00.0 213844  15 Unattached
9358.44Tige Lamb   Lenexa, KS00:00.0 119445  16 Cow Town Cycling Team
10373.07Shea Bergman   Hastings Ne00:00.0 236301  GP Velotek
11387.70Mark Cole   Leawood, KS00:00.0 270500  Cow Town Cycling Team
12402.33Luke Lininger   Greenwood, MO00:00.0 250812  12 Bicycle Shack Racing
13416.96Britton Kusiak   Prairie Village, KS00:00.0 244502  Team Colavita/ Parisi Coffee
14431.59Kyle Skinner   Peculiar, MO00:00.0 293746  11 Bicycle Shack Racing
DNPAaron Elwell   Topeka, KS00:00.0 115327  17 Highgear
DNFJeff Yielding   Hermann, MO00:00.0 204197  Revolution Cycles

Men - Cat 4

 Place Points NameCity, StateTime USAC #BibTeam
1456.69Christopher Farney   St. Joseph, MO00:00.0 323266  221 Unattached
2460.02David Collins   Lakeland, FL00:00.0 269568  235 Unattached
3Rodney LANDIS   00:00.0  224 Unattached
4Andrew LYLES   00:00.0  227 Unattached
5470.01Michael Loftus   Spencer Ma00:00.0 122667  218 Columbus Bike Racing
6473.34Gregory Booth   Grain Valley, MO00:00.0 233780  215 Velotek
7476.67Rick Krepps   Lees Summit, MO00:00.0 225727  243 Bicycle Shack Racing
8480.00Randy Martin   Wichita, KS00:00.0 211562  200 Big D Cycling
9483.33Gabe Hoelscher   Overland Park, KS00:00.0 302030  207 
10486.66Dan Schaeffer   Leawood, KS00:00.0 301128  230 Unattached
11489.99Robert Brigman   Lawrence, KS00:00.0 268813  214 GP Velotek
12493.32grant harrison   La Crosse, WI00:00.0 309144  237 GP Velotek
13Nick WASTLER   00:00.0  236 Unattached
14499.98Jake Schell   Kansas City, MO00:00.0 307270  202 Team Colavita Parisi Kansas Ci
15503.31john williams   Kansas City, MO00:00.0 312242  201 
16506.64Jordan Haffener   Jenks, OK00:00.0 282679  241 Kinetic Cycling
17509.97Casey Buta   Kansas City, KS00:00.0 302940  242 Unattached
18Ryan FRANCIS   00:00.0  240 Unattached
19Kyle VOHLAND   00:00.0  205 
20Rico VAN BUSKIRK   00:00.0  225 Unattached
21523.29Craig Henwood   Olathe, KS00:00.0 245535  65 LIVESTRONG Army/KC
22526.62Matthew O'Neil   Overland Park, KS00:00.0 256743  212 SKC
23529.95James Summers   Spring Gove, IL00:00.0 295619  234 Blue River Bicycle Club
24533.28Randy Tracy   Savannah, MO00:00.0 40880  204 
25Jeret KUSIAK   00:00.0  232 Colavita
26Patrick BEESLEY   00:00.0  228 Unattached
27Jeff SOUTER   00:00.0  222 Unattached
28546.60Andrew Romisch   Shawnee Mission, KS00:00.0 258799  217 GP Velotek
29549.93Kevin Winters   Lake Lotawana, MO00:00.0 302467  216 Ethos Racing
30553.26robert kerley   Lawrence, KS00:00.0 299346  209 
31556.59James Taylor   Kansas City, MO00:00.0 323374  229 Colavita
32559.92Jesse Miguel   Shawnee, KS00:00.0 244278  213 Localcycling.com
33563.25Jonathan Peck   Merriam, KS00:00.0 306890  219 Team Colavita/ Parisi Coffee
34Drew BARANOWSKI   00:00.0  233 Unattached
35UNKNOWN RIDER   00:00.0  63 -------
36John PERRY   00:00.0  223 Unattached
37Brad RILEY   00:00.0  220 Unattached
38579.90Aaron Stull   Parkville, MO00:00.0 273188  211 Epic
39583.23levon weaver   Prairie Village, KS00:00.0 328702  226 Colavita
40586.56Joe Fox   Shawnee, KS00:00.0 291098  210 LocalCycling.com
41589.89Brad Luber   Lenexa, KS00:00.0 323376  231 Colavita
DQUlysses RIVERA   00:00.0  238 Unattached
DNPChris Polonchek   Palo Alto, CA00:00.0 252484  203 Free State Racing
DNPChristian Lewis   Lees Summit, MO00:00.0 190717  206 UNIVERSITY OF MISSOURI
DNPAlex Roberts   Denver, CO00:00.0 244974  208 
DNFRandall Ensley   Shawnee, KS00:00.0 295046  239 Localcycling.com

Men - Cat 4 - 35-99

 Place Points NameCity, StateTime USAC #BibTeam
1476.73Randy Tracy   Savannah, MO00:00.0 40880  70 Shoresports.com
2484.80Gregory Booth   Grain Valley, MO00:00.0 233780  68 Velotek
3492.87john williams   Kansas City, MO00:00.0 312242  60 
4500.94John O'Connor   Lewood Ks00:00.0 306138  74 Unattached
5509.01Chris Joseph   Leawood, KS00:00.0 223145  72 LIVESTRONG Army KC / Midwest C
6517.08Pamela Hinton   Columbia, MO00:00.0 198666  73 Mercy Cycling Team
7Damon GUINN   00:00.0  76 Unattached
8Steve SCHWEIKER   00:00.0  75 Unattached
9541.29Kent Lewis   Lees Summit, MO00:00.0 104455  61 GP VELOTEK
10549.36Kevin Winters   Lake Lotawana, MO00:00.0 302467  69 Ethos Racing
11Brad RILEY   00:00.0  71 Unattached
12565.50Jesse Miguel   Shawnee, KS00:00.0 244278  67 Localcycling.com
13573.57Joe Fox   Shawnee, KS00:00.0 291098  64 LocalCycling.com
14581.64Bryan Kidney   Shawnee, KS00:00.0 285737  66 LocalCycling.com
15589.71Christopher Thomas   Kansas City, MO00:00.0 265069  62 Black Sheep Cartel
DNSDavid LAPIN   00:00.0  63 
DNSCraig Henwood   Olathe, KS00:00.0 245535  65 LIVESTRONG Army KC

Men - Master - 35-44

 Place Points NameCity, StateTime USAC #BibTeam
1299.02David Hejduk   Overland Park, KS00:00.0 68732  266 360 Racing
2307.11Brendon Jenks   Prairie Village, KS00:00.0 192641  199 360 Racing
3315.20Chris Ellis   Pleasanton, KS00:00.0 181090  268 Unattached
4323.29Joel Hammontree   Shawnee Mission, KS00:00.0 198150  193 360 Racing
5331.38george robinson   Shawnee, KS00:00.0 289450  195 Unattached
6339.47John Jones   Bolivar, MO00:00.0 142781  194 My Wife Inc
7347.56Damian Almanza   Lenexa, KS00:00.0 155965  180 
8355.65Richard Hu   Leawood, KS00:00.0 16964  192 LIVESTRONG Army KC / Midwest C
9363.74Douglas Plumer (1 - Cat2)   Lenexa, KS00:00.0 28305  269 SRAM/Felt
10371.83Mark Horn   Mission, KS00:00.0 301646  182 Kansas City Bicycle Club
11379.92Chuong Doan   Kansas City, MO00:00.0 251326  191 In-A-Tub Cycling p/b Cycle Cit
12388.01Denny Albertson   Chillicothe, MO00:00.0 302773  263 Unattached
13396.10Joseph Houston   Prairie Village, KS00:00.0 259637  197 Slimenundgrossen
14404.19Mark Kern   Shawnee, KS00:00.0 284654  184 NA
15412.28Brian Lasswell (1 - Cat3)   Lees Summit, MO00:00.0 258777  183 Bicycle Shack Racing
16420.37Carl Schipfmann   Lenexa, KS00:00.0 219343  265 KCOI Boulevard
17428.46Prayuth Sirasudhi   Olathe, KS00:00.0 201805  190 SKC Racing
18436.55Jon-Paul Shores   Olathe, KS00:00.0 60481  185 Shores Sports
19Zeke SHEPHERD   00:00.0  198 Unattached
20Joshua KEITHLY   00:00.0  196 Unattached
21460.82Brent Hankins   Kansas City, MO00:00.0 222778  187 LIVESTRONG Army KC / Midwest C
22468.91Wade Bieberdorf (2 - Cat3)   Roeland Park, KS00:00.0 170566  267 Localcycling.com
23477.00Eric Pacheco   Independence, MO00:00.0 240965  186 GP Velotek
24485.09Jason Kendrick   Louisville, KY00:00.0 151316  181 
25493.18Daniel Jarman   Lenexa, KS00:00.0 232479  188 Localcycling.com
DNFwesley robertson   Kansas City, MO00:00.0 275117  189 In-A-Tub Cycling p/b Cycle Cit
DNFJaime Galvan   Olathe, KS00:00.0 250834  264 SKC Racing

Men - Master - 45-54

 Place Points NameCity, StateTime USAC #BibTeam
1300.16Andy Lucas   Leawood, KS00:00.0 148258  281 360 Racing
2310.22Stephen Songer   Overland Park, KS00:00.0 150789  280 360 Racing
3320.28David Moore   Baldwin City, KS00:00.0 24903  274 
4330.34Brian Duff   Kansas City, MO00:00.0 118127  287 Sunflower/Budweiser
5340.40Jim Rank   Belton, MO00:00.0 222978  279 Bicycle Shack Racing
6350.46William Pitt   Leawood, KS00:00.0 196186  290 Slimenundgrossen
7360.52Carl Fischer   Leavenworth, KS00:00.0 241350  273 Santa Fe Trails Bicycle Racing
8370.58Telford Crisco   Lansing, KS00:00.0 8151  270 Renaissance Cycling
9380.64Robert Ades   Lenexa, KS00:00.0 198910  276 Blue River Bicycle Club
10390.70James Shiflett   Meadville, MO00:00.0 268348  278 360 Racing
11400.76Todd Bellem   Prairie Village, KS00:00.0 244263  289 Unattached
12410.82Mark Thomas   Shawnee, KS00:00.0 35363  288 Slimenundgrossen
13420.88David Romisch   Overland Park, KS00:00.0 254416  277 GP Velotek
14Greg YAKSHAW   00:00.0  284 Unattached
15441.00Richard Bort   Overland Park, KS00:00.0 47017  283 Blue River Bicycle Club
16451.06David Conrad   Olathe, KS00:00.0 7598  271 Local Cycling
17461.12Kevin Collins   Hiawatha, KS00:00.0 286428  275 
18471.18David Bottoms   Overland Park, KS00:00.0 175060  282 Blue River Bicycle Club
19481.24Mark Breeding   Independence, MO00:00.0 224993  286 Bicycle Shack Racing
20491.30Jon Parker   Kansas City, MO00:00.0 263611  272 KCOI/Boulevard
21501.36Michael Berning   Overland Park, KS00:00.0 159028  285 KCOI Boulevard

Men - Master - 55-99

 Place Points NameCity, StateTime USAC #BibTeam
1367.35D Douglas Long   Chillicothe, MO00:00.0 90529  371 360 Racing
2385.08Harold Parker   Lenexa, KS00:00.0 27258  372 360racing
3402.81RIchard Pearson   Fremont, NE00:00.0 221142  374 Team Kaos/Alegent Health
4420.54Randy Martin   Wichita, KS00:00.0 211562  370 Big D Cycling
5438.27Robert Swift   Lees Summit, MO00:00.0 263088  375 Bicycle Shack Racing
6Frank DRELLING   00:00.0  376 Unattached
7473.73Dan Peak   Kansas City, MO00:00.0 300387  378 Unattached
8491.46Paul Weston   Kansas City, MO00:00.0 266812  377 The Wheel Cycling Club
10509.19Samuel Perkins   Lawrence, KS00:00.0 46974  379 Free State Racing

Men - Master - 65-99

 Place Points NameCity, StateTime USAC #BibTeam
1458.03David Wamsley   Lawrence, KS00:00.0 37155  397 Free State Racing
2497.12William Jennings   Leawood, KS00:00.0 271401  373 
3536.21Richard Bowman   Kansas City, MO00:00.0 220573  396 Cycle City Racing
4575.30Emily Wamsley   Lawrence, KS00:00.0 260217  398 Free State Racing

Men - Junior - 10-18

 Place Points NameCity, StateTime USAC #BibTeam
1487.73Andrew Romisch   Shawnee Mission, KS00:00.0 258799  50 GP Velotek
2Isaac JONAS   00:00.0  52 U-20
3Jonas PRICE   00:00.0  53 Verge/KCCX
4564.44Keaton Rex   Shawnee, KS00:00.0 298283  55 SKC Racing
5590.01Nathaniel Brown    Lenexa, KS00:00.0 326016  54 Unattached

Women - Cat1/2/3/4

 Place Points NameCity, StateTime USAC #BibTeam
1358.52Jennifer Herrell-Rhoades   Kansas City, MO00:00.0 243849  38 Bicycles of Tulsa
2378.00Allison Adams   Overland Park, KS00:00.0 175162  34 SKC Racing
3397.48Karen Brocket   Raytown, MO00:00.0 287354  39 SKC Racing
4416.96Pamela Hinton   Columbia, MO00:00.0 198666  32 Mercy Cycling Team
5436.44Sarah Worthington   Kansas City, MO00:00.0 203454  41 Big Shark
6455.92Carol Flinchbaugh   Mesilla, NM00:00.0 272625  37 Free State Racing
7475.40Renae Weaver   Lees Summit, MO00:00.0 275450  33 GP Velotek
8494.88Michelle Maxwell   Lafayette, CO00:00.0 305270  36 Free State Racing
9514.36Madeline Finch   Sacramento, CA00:00.0 127715  30 Free State Racing
10533.84Kathryn Gaherty   Lees Summit, MO00:00.0 269517  40 KCOI Boulevard
11553.32Teresa Jarzemkoski   Shawnee, KS00:00.0 155694  35 Slimenundgrossen
12572.80Donica Goodwin (1 - Cat4)   Kansascity, MO00:00.0 301987  31 

Women - Cat 4

 Place Points NameCity, StateTime USAC #BibTeam
1535.24Becca Williams   Prairie Village, KS00:00.0 306230  150 Localcycling.com
2537.32Kristin Goodwin   Alexandria, VA00:00.0 208306  261 Roasterie Flyers
3539.40Laura Richards   Lawrence, KS00:00.0 327204  262 Unattached
4541.48Sandra Collins   Hiawatha, KS00:00.0 286431  156 
5543.56Susie Schultz   Overland Park, KS00:00.0 238110  157 LIVESTRONG Army KC p/b Midwest
6545.64Julie Higgins   Lees Summit, MO00:00.0 309162  159 Unattached
7Maggie MILLER   00:00.0  260 Unattached
8549.80Venasa Ray   Kansas City, MO00:00.0 320176  153 The Roasterie Flyers
9551.88Julie Stark   Kansas City, KS00:00.0 252460  164 Slimundgrossen/Local Cycling
10553.96Shawna Macan   Roelandpark, KS00:00.0 308985  151 Localcycling.com
11556.04Michelle Maxwell   Lafayette, CO00:00.0 305270  160 Free State Racing
12558.12Wendy Guilbeau   Bonner Springs, KS00:00.0 275159  155 Renaissance Racing
13560.20Emily Pastrovich   Prairie Village, KS00:00.0 301828  162 360 Racing
14Melissa DAHNER   00:00.0  163 Unattached
15564.36Sharmion LinseisenKerley   Lawrence, KS00:00.0 322928  154 
16566.44Amy Fear-Bishop   Prairie Village, KS00:00.0 220884  42 Spoke Wenches
17Emma GOSSETT   00:00.0  152 
DNSHilary WHETSTONE   00:00.0  158 Unattached
DNFCarol Flinchbaugh   Mesilla, NM00:00.0 272625  161 Free State Racing

Women - Junior - 10-18

 Place Points NameCity, StateTime USAC #BibTeam
1Karen Brocket   Raytown, MO00:00.0 287354  51 SKC Racing

Report missing or incorrect license numbers

Volkswagen
USACDFBonk BreakerSpySierra NevadaShimano
UCI USA Cycling is the official governing body for all disciplines of competitive cycling in the United States. The 501c3, membership-based organization aims both to achieve sustained success in international cycling competition and to grow competitive cycling in America while delivering an exceptional customer experience.
View Children's Online Privacy Protection Policy
US Olympic Committee